TimeCDT,TemperatureF,Dew PointF,Humidity,Sea Level PressureIn,VisibilityMPH,Wind Direction,Wind SpeedMPH,Gust SpeedMPH,PrecipitationIn,Events,Conditions,WindDirDegrees,DateUTC
12:15 AM,80.1,74.3,82,30.00,10.0,South,4.6,-,N/A,,Clear,190,2013-09-10 05:15:00
12:35 AM,79.3,73.9,83,30.01,7.0,SSW,4.6,-,N/A,,Clear,200,2013-09-10 05:35:00
12:55 AM,79.2,73.9,84,30.01,7.0,South,4.6,-,N/A,,Clear,190,2013-09-10 05:55:00
1:15 AM,79.2,73.9,84,30.01,7.0,South,4.6,-,N/A,,Clear,190,2013-09-10 06:15:00
1:35 AM,78.6,73.9,85,30.02,7.0,South,4.6,-,N/A,,Clear,190,2013-09-10 06:35:00
1:55 AM,78.3,73.9,87,30.02,7.0,SSW,4.6,-,N/A,,Clear,200,2013-09-10 06:55:00
2:15 AM,78.4,73.9,86,30.02,7.0,South,3.5,-,N/A,,Scattered Clouds,190,2013-09-10 07:15:00
2:35 AM,78.1,73.9,87,30.02,7.0,South,4.6,-,N/A,,Scattered Clouds,190,2013-09-10 07:35:00
2:55 AM,77.9,73.8,87,30.02,7.0,South,4.6,-,N/A,,Clear,190,2013-09-10 07:55:00
3:15 AM,77.9,73.9,88,30.03,7.0,South,3.5,-,N/A,,Clear,190,2013-09-10 08:15:00
3:35 AM,77.4,73.8,89,30.03,7.0,SSW,3.5,-,N/A,,Clear,200,2013-09-10 08:35:00
3:55 AM,76.5,73.6,91,30.03,7.0,SSW,3.5,-,N/A,,Clear,200,2013-09-10 08:55:00
4:15 AM,76.3,73.6,91,30.03,7.0,South,4.6,-,N/A,,Clear,190,2013-09-10 09:15:00
4:35 AM,76.1,73.6,92,30.04,7.0,SSW,3.5,-,N/A,,Clear,200,2013-09-10 09:35:00
4:55 AM,75.4,73.6,94,30.05,7.0,South,3.5,-,N/A,,Clear,190,2013-09-10 09:55:00
5:15 AM,75.6,73.4,93,30.05,7.0,South,4.6,-,N/A,,Clear,190,2013-09-10 10:15:00
5:35 AM,75.4,73.4,94,30.06,7.0,SSW,3.5,-,N/A,,Clear,200,2013-09-10 10:35:00
5:55 AM,75.2,73.4,94,30.06,5.0,South,3.5,-,N/A,,Clear,190,2013-09-10 10:55:00
6:15 AM,74.8,73.4,95,30.07,5.0,SSW,3.5,-,N/A,,Clear,200,2013-09-10 11:15:00
6:35 AM,74.3,74.1,99,30.08,5.0,SSW,3.5,-,N/A,,Clear,200,2013-09-10 11:35:00
6:55 AM,74.5,73.8,98,30.08,4.0,South,3.5,-,N/A,,Clear,190,2013-09-10 11:55:00
7:15 AM,75.2,73.9,96,30.09,4.0,South,3.5,-,N/A,,Clear,190,2013-09-10 12:15:00
7:35 AM,75.9,74.3,95,30.09,5.0,South,3.5,-,N/A,,Clear,190,2013-09-10 12:35:00
7:55 AM,77.4,74.3,90,30.09,5.0,South,3.5,-,N/A,,Clear,190,2013-09-10 12:55:00
8:15 AM,79.0,74.5,86,30.09,7.0,Calm,Calm,-,N/A,,Clear,0,2013-09-10 13:15:00
8:35 AM,80.8,74.5,81,30.09,7.0,SSW,3.5,-,N/A,,Clear,200,2013-09-10 13:35:00
8:55 AM,82.4,74.1,76,30.10,7.0,SW,4.6,-,N/A,,Clear,230,2013-09-10 13:55:00
9:15 AM,83.5,73.9,73,30.10,10.0,SW,3.5,-,N/A,,Clear,220,2013-09-10 14:15:00
9:35 AM,85.3,73.4,67,30.11,10.0,WSW,4.6,-,N/A,,Clear,250,2013-09-10 14:35:00
9:55 AM,86.5,73.6,65,30.11,10.0,WSW,5.8,-,N/A,,Scattered Clouds,240,2013-09-10 14:55:00
10:15 AM,87.6,72.1,60,30.11,10.0,West,5.8,-,N/A,,Scattered Clouds,260,2013-09-10 15:15:00
10:35 AM,88.7,72.5,59,30.11,10.0,West,5.8,-,N/A,,Clear,260,2013-09-10 15:35:00
10:55 AM,89.4,72.3,57,30.11,10.0,West,4.6,-,N/A,,Clear,280,2013-09-10 15:55:00
11:15 AM,89.2,72.5,58,30.11,10.0,West,3.5,-,N/A,,Scattered Clouds,280,2013-09-10 16:15:00
11:35 AM,90.0,72.1,56,30.11,10.0,Calm,Calm,-,N/A,,Scattered Clouds,0,2013-09-10 16:35:00
11:55 AM,91.8,72.1,52,30.10,10.0,SW,4.6,-,N/A,,Clear,220,2013-09-10 16:55:00
12:15 PM,92.5,72.1,51,30.10,10.0,SW,3.5,-,N/A,,Clear,230,2013-09-10 17:15:00
12:35 PM,-9999,-9999,N/A,30.10,10.0,SSW,3.5,-,N/A,,Clear,210,2013-09-10 17:35:00
12:55 PM,-9999,-9999,N/A,30.10,10.0,South,6.9,-,N/A,,Clear,180,2013-09-10 17:55:00
1:15 PM,-9999,-9999,N/A,30.10,10.0,South,4.6,-,N/A,,Clear,190,2013-09-10 18:15:00
1:35 PM,-9999,-9999,N/A,30.10,10.0,South,8.1,-,N/A,,Clear,190,2013-09-10 18:35:00
1:55 PM,-9999,-9999,N/A,30.09,10.0,SSW,5.8,-,N/A,,Clear,200,2013-09-10 18:55:00
2:15 PM,-9999,-9999,N/A,30.08,10.0,South,5.8,-,N/A,,Scattered Clouds,190,2013-09-10 19:15:00
2:35 PM,-9999,-9999,N/A,30.08,10.0,South,4.6,-,N/A,,Scattered Clouds,190,2013-09-10 19:35:00
2:55 PM,-9999,-9999,N/A,30.07,10.0,SW,3.5,-,N/A,,Scattered Clouds,220,2013-09-10 19:55:00
3:15 PM,-9999,-9999,N/A,30.06,10.0,South,4.6,-,N/A,,Clear,190,2013-09-10 20:15:00
3:35 PM,-9999,-9999,N/A,30.05,10.0,South,3.5,-,N/A,,Scattered Clouds,180,2013-09-10 20:35:00
3:55 PM,-9999,-9999,N/A,30.05,10.0,South,9.2,-,N/A,,Scattered Clouds,190,2013-09-10 20:55:00
4:15 PM,-9999,-9999,N/A,30.05,10.0,South,5.8,-,N/A,,Clear,190,2013-09-10 21:15:00
4:35 PM,-9999,-9999,N/A,30.05,10.0,South,5.8,-,N/A,,Clear,190,2013-09-10 21:35:00
4:55 PM,-9999,-9999,N/A,30.06,10.0,South,3.5,-,N/A,,Clear,170,2013-09-10 21:55:00
5:15 PM,-9999,-9999,N/A,30.05,10.0,South,5.8,-,N/A,,Clear,170,2013-09-10 22:15:00
5:35 PM,-9999,-9999,N/A,30.06,10.0,SSE,5.8,-,N/A,,Clear,160,2013-09-10 22:35:00
5:55 PM,-9999,-9999,N/A,30.06,10.0,South,5.8,-,N/A,,Clear,180,2013-09-10 22:55:00
6:15 PM,-9999,-9999,N/A,30.07,10.0,South,5.8,-,N/A,,Clear,170,2013-09-10 23:15:00
6:35 PM,-9999,-9999,N/A,30.08,10.0,South,5.8,-,N/A,,Clear,180,2013-09-10 23:35:00
6:55 PM,-9999,-9999,N/A,30.08,10.0,South,5.8,-,N/A,,Clear,170,2013-09-10 23:55:00
7:15 PM,-9999,-9999,N/A,30.08,10.0,South,5.8,-,N/A,,Clear,170,2013-09-11 00:15:00
7:35 PM,-9999,-9999,N/A,30.09,10.0,South,4.6,-,N/A,,Clear,170,2013-09-11 00:35:00
7:55 PM,-9999,-9999,N/A,30.09,10.0,SSE,3.5,-,N/A,,Clear,160,2013-09-11 00:55:00
8:15 PM,-9999,-9999,N/A,30.09,10.0,SSE,4.6,-,N/A,,Clear,150,2013-09-11 01:15:00
8:35 PM,-9999,-9999,N/A,30.10,10.0,SSE,4.6,-,N/A,,Clear,160,2013-09-11 01:35:00
8:55 PM,-9999,-9999,N/A,30.10,10.0,SSE,4.6,-,N/A,,Clear,160,2013-09-11 01:55:00
9:15 PM,-9999,-9999,N/A,30.11,10.0,SSE,3.5,-,N/A,,Clear,160,2013-09-11 02:15:00
9:35 PM,-9999,-9999,N/A,30.11,10.0,SE,3.5,-,N/A,,Clear,140,2013-09-11 02:35:00
9:55 PM,-9999,-9999,N/A,30.11,10.0,SSE,4.6,-,N/A,,Clear,160,2013-09-11 02:55:00
10:15 PM,-9999,-9999,N/A,30.12,10.0,SSE,4.6,-,N/A,,Clear,160,2013-09-11 03:15:00
10:35 PM,-9999,-9999,N/A,30.11,10.0,South,4.6,-,N/A,,Clear,170,2013-09-11 03:35:00
10:55 PM,-9999,-9999,N/A,30.11,10.0,SSE,3.5,-,N/A,,Clear,160,2013-09-11 03:55:00
11:15 PM,-9999,-9999,N/A,30.11,10.0,SSE,3.5,-,N/A,,Clear,160,2013-09-11 04:15:00
11:35 PM,-9999,-9999,N/A,30.11,10.0,South,4.6,-,N/A,,Clear,180,2013-09-11 04:35:00
11:55 PM,-9999,-9999,N/A,30.11,10.0,South,4.6,-,N/A,,Clear,190,2013-09-11 04:55:00